This demonstration page uses our WeatherBlox Daily Observations layout. Learn more.

Left ArrowRight Arrow

36.17497, -115.13722

Hourly Observations for September 5, 2017

Temp ( °F °C ) Dew Point ( °F °C ) Humidity (%) Winds ( mph kmh ) Pressure ( in mb ) Visibility ( mi km ) Precip ( " mm )
12:53 am 00:53 Clear 89 31.7 53 11.7 29 29 Calm 29.87 1012 10 16 0.00 0.00
1:53 am 01:53 Clear 89 31.7 53 11.7 29 29 NNW 3 6 29.86 1011 10 16 0.00 0.00
2:53 am 02:53 Clear 88 31.1 53 11.7 30 30 Calm 29.87 1012 10 16 0.00 0.00
3:53 am 03:53 Clear 87 30.6 53 11.7 31 31 Calm 29.87 1012 10 16 0.00 0.00
4:53 am 04:53 Clear 84 28.9 52 11.1 33 33 NNW 5 7 29.88 1012 10 16 0.00 0.00
5:53 am 05:53 Clear 84 28.9 52 11.1 33 33 NW 6 9 29.89 1012 10 16 0.00 0.00
6:53 am 06:53 Sunny 86 30 52 11.1 31 31 NW 5 7 29.91 1013 10 16 0.00 0.00
7:53 am 07:53 Sunny 86 30 53 11.7 32 32 NNW 5 7 29.92 1013 10 16 0.00 0.00
8:53 am 08:53 Sunny 91 32.8 52 11.1 26 26 N 5 7 29.93 1014 10 16 0.00 0.00
9:53 am 09:53 Sunny 92 33.3 50 10 24 24 Calm 29.93 1014 10 16 0.00 0.00
10:53 am 10:53 Sunny 95 35 48 8.9 20 20 SSE 5 7 29.93 1014 10 16 0.00 0.00
11:53 am 11:53 Sunny 98 36.7 49 9.4 19 19 NNW 3 6 29.91 1013 10 16 0.00 0.00
12:53 pm 12:53 Sunny 99 37.2 49 9.4 18 18 W 5 7 29.89 1012 10 16 0.00 0.00
1:53 pm 13:53 Sunny 101 38.3 48 8.9 17 17 S 7 11 29.86 1011 10 16 0.00 0.00
2:53 pm 14:53 Sunny 103 39.4 47 8.3 15 15 Calm 29.83 1010 10 16 0.00 0.00
3:53 pm 15:53 Sunny 105 40.6 43 6.1 12 12 SSE 13 20 29.80 1009 10 16 0.00 0.00
4:53 pm 16:53 Sunny 101 38.3 49 9.4 17 17 WSW 24 39 29.80 1009 10 16 0.00 0.00
5:05 pm 17:05 Sunny 99 37.2 50 10 19 19 W 22 35 29.65 1004 10 16 0.00 0.00
5:53 pm 17:53 Sunny 98 36.7 48 8.9 18 18 W 15 24 29.80 1009 10 16 0.00 0.00
6:53 pm 18:53 Sunny 98 36.7 47 8.3 17 17 W 6 9 29.82 1010 10 16 0.00 0.00
7:53 pm 19:53 Clear 96 35.6 49 9.4 20 20 S 9 15 29.84 1011 10 16 0.00 0.00
8:53 pm 20:53 Clear 92 33.3 52 11.1 26 26 SSE 22 35 29.89 1012 10 16 0.00 0.00
9:53 pm 21:53 Clear 89 31.7 54 12.2 30 30 ESE 6 9 29.95 1014 10 16 0.00 0.00
10:53 pm 22:53 Mostly Cloudy with Light Rain 86 30 60 15.6 42 42 SSE 10 17 29.99 1016 10 16 0.00 0.03
11:53 pm 23:53 Clear 87 30.6 54 12.2 32 32 W 12 19 29.94 1014 10 16 0.00 0.03

Powered by AerisWeather